Regional Weather Roundup
Issued by NWS

Home | Current Version | Previous Version | Graphics & Text | Print | Product List | Glossary On
Versions: 1 2 3 4 5 6 7 8 9 10 11 12 13 14 15 16 17 18 19 20 21 22 23 24 25 26 27 28 29 30 31 32 33 34 35 36 37 38 39 40 41 42 43 44 45 46 47 48 49 50
000
ASUS43 KFSD 301502
RWRSD

WEATHER ROUNDUP FOR SOUTH DAKOTA
NATIONAL WEATHER SERVICE SIOUX FALLS SD
1000 AM CDT MON MAY 30 2016

NOTE: "FAIR" INDICATES FEW OR NO CLOUDS BELOW 12,000 FEET WITH NO
SIGNIFICANT WEATHER AND/OR OBSTRUCTIONS TO VISIBILITY.


SDZ001>005-009-010-012>017-301600-
NORTHWEST AND NORTH CENTRAL SOUTH DAKOTA

CITY           SKY/WX    TMP DP  RH WIND       PRES   REMARKS
BUFFALO          N/A     60  53  77 N8        29.84R
FAITH            N/A     68  55  63 SE20      29.84F
MOBRIDGE       SUNNY     69  58  67 SE14      29.87F
$$

SDZ012>016-024>037-041>051-057-063-072>074-301600-
SOUTHWEST AND SOUTH CENTRAL SOUTH DAKOTA

CITY           SKY/WX    TMP DP  RH WIND       PRES   REMARKS
RAPID CTY ARPT PTSUNNY   63  56  78 SE7       29.87S
PIERRE         MOSUNNY   71  56  58 SE18G26   29.88F
CUSTER         CLOUDY    62  41  46 W9G17     29.99F
ELLSWORTH AFB  PTSUNNY   65  54  66 S2        29.86S
PHILIP         MOSUNNY   71  56  58 SE15      29.87F
PINE RIDGE     CLOUDY    67  52  58 SW9       29.92S
WINNER         FAIR      72  59  63 SE20G26   29.92F
$$

SDZ004>011-016>023-039-040-301600-
NORTHEAST SOUTH DAKOTA

CITY           SKY/WX    TMP DP  RH WIND       PRES   REMARKS
ABERDEEN       SUNNY     72  55  55 SW3       29.92F
WATERTOWN      SUNNY     71  56  58 S14       29.96S
BROOKINGS      MOSUNNY   70  55  59 S16       29.98S
SISSETON         N/A     79  46  31 SE5       29.92S
$$

SDZ017-020-022-023-036>040-048>070-301600-
SOUTHEAST SOUTH DAKOTA

CITY           SKY/WX    TMP DP  RH WIND       PRES   REMARKS
SIOUX FALLS    PTSUNNY   71  58  63 S12       30.00R
HURON          CLOUDY    67  58  72 S15G21    29.92F
MITCHELL       CLOUDY    70  58  65 S17       29.96S
YANKTON        SUNNY     70  55  60 SE8       29.98F
$$

ABBREVIATIONS USED IN REMARKS
   TC - TEMPERATURE IN CELSIUS
  WCI - WIND CHILL INDEX
   HX - HEAT INDEX
  VSB - VISIBILITY




USA.gov is the U.S. government's official web portal to all federal, state and local government web resources and services.